Regional Weather Roundup
Issued by NWS Pendleton, OR

Home | Current Version | Previous Version | Text Only | Print | Product List | Glossary On
Versions: 1 2 3 4 5 6 7 8 9 10 11 12 13 14 15 16 17 18 19 20 21 22 23 24 25 26 27 28 29 30 31 32 33 34 35 36 37 38 39 40 41 42 43 44 45 46 47 48 49 50
000
ASUS46 KPDT 010025
RWRPDT
PENDLETON REGIONAL WEATHER ROUNDUP
NATIONAL WEATHER SERVICE PENDLETON OREGON
500 PM PDT FRI SEP 30 2016

NOTE: FAIR INDICATES FEW OR NO CLOUDS BELOW 12,000 FEET WITH NO
SIGNIFICANT WEATHER AND/OR OBSTRUCTIONS TO VISIBILITY.

# INDICATES UNOFFICIAL STATION AND DATA

WAZ520-010110-
EAST SLOPES OF WASHINGTON CASCADES

CITY            SKY/WX      TMP DP  RH  WIND    PRES   REMARKS
#BULLFROG       N/A         55  N/A N/A S5      N/A
#BUMPING DAM    N/A         55  32  41  CALM    N/A
#CLE ELUM HS    N/A         65  37  35  SW6     29.83F
#CLE ELUM LAKE  N/A         64  39  40  CALM    29.83S
#CLIFFDEL 2NW   N/A         55  N/A N/A S2      N/A
#EASTON DOT     N/A         55  86  100 N3      N/A
#ELK HTS DOT    N/A         55  140 100 CALM    N/A
#GLENWOOD       N/A         64  39  40  S7      29.87R
#NILE           N/A         64  40  41  SW1     29.08F
#PEOH POINT     N/A         55  50  83  CALM    N/A
#RONALD 2NW     N/A         64  N/A N/A W1      29.95S
#SOUTH BLEWITT  N/A         55  86  100 S2      N/A
#TEANAWAY 4NE   N/A         68  35  29  W6      N/A
$$

WAZ521-010110-
SIMCOE HIGHLANDS

CITY            SKY/WX      TMP DP  RH  WIND    PRES   REMARKS
#SATUS PASS DOT N/A         55  86  100 S2      N/A
#GOLDENDALE     N/A         55  32  41  SE5     N/A
#GOLDENDALE 1NE N/A         67  21  17  W3      N/A
#GOLDENDALE 4W  N/A         68  47  47  W13     29.92S
#LYLE 6NE       N/A         64  43  46  W13     29.84S
$$

WAZ026-010110-
KITTITAS VALLEY

CITY            SKY/WX      TMP DP  RH  WIND    PRES   REMARKS
6HR MIN TEMP:   64; 6HR MAX TEMP:   75;

#ELLENSBURG CWU N/A         73  34  24  NE1     29.75F
#ELLENSBURG 3NE N/A         68  42  39  CALM    29.85S
#KITTITAS 4N    N/A         68  38  33  CALM    29.85S
#KITTITAS 3S    N/A         69  45  42  W2      29.78S
#MANASTASH RDG  N/A         55  140 100 CALM    N/A
#ROCKY CYN DOT  N/A         55  N/A N/A CALM    N/A
#RYEGRASS DOT   N/A         55  140 100 CALM    N/A
#THORP 6N       N/A         64  34  33  W12     29.85S
$$

WAZ027-010110-
YAKIMA VALLEY

CITY            SKY/WX      TMP DP  RH  WIND    PRES   REMARKS
SUNNYSIDE AP    PTCLDY      70  42  36  S3      29.83S
6HR MIN TEMP:   66; 6HR MAX TEMP:   77;

6HR MIN TEMP:   64; 6HR MAX TEMP:   74;

#MABTON         N/A         73  54  51  CALM    29.82S
#OUTLOOK DOT    N/A         55  14  19  S5      N/A
#SELAH 8E       N/A          7   0  72  CALM    N/A
#TERRACE HTS    N/A         72  37  28  S2      29.77S
#UNION GAP DOT  N/A         55  N/A N/A S5      N/A
#WEST VALLEY    N/A         70  32  24  S3      29.77F
#WHITE SWAN 5E  N/A         73  32  22  SW5     29.81S
#WILEY CITY 3W  N/A         72   7   8  SE7     29.79F
#ZILLAH DOT     N/A         55  14  19  S5      N/A
$$

WAZ028-010110-
LOWER COLUMBIA BASIN...WASHINGTON

CITY            SKY/WX      TMP DP  RH  WIND    PRES   REMARKS
6HR MIN TEMP:   70; 6HR MAX TEMP:   76;

PROSSER AWOS    N/A         73  45  37  CALM    29.86S
RICHLAND AWOS   CLOUDY      76  40  27  CALM    29.82F
#KAHLOTUS       N/A         75  40  28  CALM    29.78F
#KENNEWICK 3S   N/A         70  49  47  CALM    29.80F
#PROSSER DOT    N/A         55  86  100 S5      N/A
#SAGEMOOR 2W    N/A         72  47  41  S3      29.68R
#TOUCHET 2S     N/A         71  45  39  W1      29.80R
#WEST PASCO     N/A         75  46  36  NW1     29.77F
$$

WAZ029-010110-
FOOTHILLS OF THE BLUES...WASHINGTON

CITY            SKY/WX      TMP DP  RH  WIND    PRES   REMARKS
6HR MIN TEMP:   66; 6HR MAX TEMP:   75;

#DELANEY DOT    N/A         55  86  100 W6      N/A
#LOWDEN 2SE     N/A         71  46  41  W5      29.78S
#PLEASANT VIEW 1N/A         73  39  29  CALM    29.83R
#WHITMAN COLLEGEN/A         71  42  35  S2      29.84F
$$

WAZ030-010110-
BLUE MOUNTAINS...WASHINGTON

CITY            SKY/WX      TMP DP  RH  WIND    PRES   REMARKS
#DIXIE 5SE      N/A         62  43  50  E2      29.83F
$$

ORZ009-041-WAZ024-010110-
COLUMBIA RIVER GORGE

CITY            SKY/WX      TMP DP  RH  WIND    PRES   REMARKS
6HR MIN TEMP:   67; 6HR MAX TEMP:   75;

#ARLINGTON AIRPON/A         74  40  29  W12     29.81F
#MARYHILL       N/A         55  140 100 NE7     N/A
#MOSIER 1S      N/A         65  31  28  NW6     29.88S
#MURDOCK        N/A         68  48  49  W23G35  29.82S
#SMITHVILLE     N/A         69  45  42  N18G31  29.79F

$$

ORZ510-010110-
NORTH CENTRAL OREGON

CITY            SKY/WX      TMP DP  RH  WIND    PRES   REMARKS
#DUFUR 9E       N/A         59  42  53  N21     29.91S
#MAUPIN SCHOOL  N/A         72  44  37  NW7     29.89S
#TYGH VALLEY 2NEN/A         69  44  40  N9      29.83R
#WASCO AIRPORT  N/A         70  38  31  W15     N/A
#WASCO 5NE      N/A         68  42  39  N9      29.83F
$$

ORZ511-010110-
CENTRAL OREGON

CITY            SKY/WX      TMP DP  RH  WIND    PRES   REMARKS
BEND AIRPORT    PTCLDY      68  34  28  N12     29.89S
PRINEVILLE AP   MOCLDY      66  34  30  W18G28  29.89S
6HR MIN TEMP:   66; 6HR MAX TEMP:   77;

#ASHWOOD SCHOOL N/A         70  37  30  CALM    29.84S
#BEND 1SW       N/A         65  31  28  NW3     N/A
#BEND-AWBREY    N/A         69  34  27  SW13    29.79R
#BEND-KIM LN    N/A         62  39  43  W13G25  29.82S
#CULVER 8W      N/A         67  33  28  CALM    29.93R
#LAKE BILLY CHINN/A         65  N/A N/A SW8     29.95R
#MADRAS         N/A         55  32  41  NW8     N/A
#MADRAS 4S      N/A         70  14  11  CALM    29.97R

$$


ORZ509-010110-
EAST SLOPES OF OREGON CASCADES

CITY            SKY/WX      TMP DP  RH  WIND    PRES   REMARKS
#CAMP SHERMAN   N/A         60  28  29  N2      29.96S
#LA PINE 4NW    N/A         62  34  35  W1      29.89R
#SISTERS 3N     N/A         59  30  33  SW2     29.91S
#SUNRIVER       N/A         62  36  38  SW5     29.86R
#TUMALO 3W      N/A         66  32  28  W10     29.68R

$$

ORZ044-010110-
LOWER COLUMBIA BASIN...OREGON

CITY            SKY/WX      TMP DP  RH  WIND    PRES   REMARKS
6HR MIN TEMP:   68; 6HR MAX TEMP:   76; 6HR PCP:  TRACE;

#BOARDMAN SCHOOLN/A         75  41  29  E1      29.80S
#BOARDMAN 8SW   N/A         77  38  24  SE3     29.80S
#IRRIGON 4NW    N/A         55  50  83  NW1     N/A
$$

ORZ507-010110-
NORTHERN FOOTHILLS OF THE BLUES

CITY            SKY/WX      TMP DP  RH  WIND    PRES   REMARKS
6HR MIN TEMP:   66; 6HR MAX TEMP:   73;

#HELIX 3N       N/A         68  35  29  N5      29.85R
#HELIX 6SW      N/A         68  35  29  CALM    29.85F
#HOLDMAN 6E     N/A         68  35  29  E5      29.62S
#M-F GROVE ELEM N/A         71  39  31  CALM    29.81F
#M-FREEWATER 5SEN/A         69  51  53  CALM    29.83F
#PDT AQUATIC CTRN/A         70  39  32  W6      29.87S
#TUTUILLA       N/A         69  37  31  CALM    29.83S
#UMAPINE 2E     N/A         70  45  41  CALM    29.80S
#WESTON SCHOOL  N/A         68  38  33  E5      29.71F

$$

ORZ508-010110-
SOUTHERN FOOTHILLS OF THE BLUES

CITY            SKY/WX      TMP DP  RH  WIND    PRES   REMARKS
LEXINGTON       CLOUDY      72  34  25  CALM    29.90R
#CONDON 5W      N/A         62  33  34  N12     29.88R
#FOSSIL SCHOOL  N/A         68  36  31  NE7     29.84R
#LEXINGTON 2SE  N/A         72  36  27  W3      29.83R

$$

ORZ502-503-010110-
BLUE MOUNTAINS

CITY            SKY/WX      TMP DP  RH  WIND    PRES   REMARKS
6HR MIN TEMP:   66; 6HR MAX TEMP:   75;

#HEPPNER 15SE   N/A         58  31  36  NW2     25.47S
#LONG CREEK HS  N/A         71  35  27  W7      29.88S
#PIKES PEAK     N/A         62  42  48  CALM    27.99S
$$

ORZ505-010110-
JOHN DAY BASIN

CITY            SKY/WX      TMP DP  RH  WIND    PRES   REMARKS
JOHN DAY        CLOUDY      74  30  20  SW14    29.89S
#DAYVILLE SCHOOLN/A         77  30  18  SW1     29.81S
#MITCHELL       N/A         69  46  44  CALM    30.03S
#MITCHELL 8NW   N/A         67  38  34  CALM    29.97S
#MT. VERNON 5SE N/A         72  33  24  S7      29.85F
$$

ORZ506-010110-
OCHOCO AND JOHN DAY HIGHLANDS

CITY            SKY/WX      TMP DP  RH  WIND    PRES   REMARKS
#PINE MTN OBS   N/A         57  30  35  SE5     N/A
#PRAIRIE CITY   N/A         75  32  21  S2      30.03F
#SENECA         N/A         69  N/A N/A N7      N/A
$$

ORZ049-010110-
GRANDE RONDE VALLEY

CITY            SKY/WX      TMP DP  RH  WIND    PRES   REMARKS
LA GRANDE       CLOUDY      79  34  20  S9      29.82F
#COVE 6NW       N/A         77  41  28  CALM    29.70S
#ELGIN 3N       N/A         75  35  23  W1      29.82F
#IMBLER SCHOOL  N/A         75  41  29  CALM    29.80F
#ISLAND CITY 4N N/A         67  48  50  SW1     29.97S
#LA GRANDE ELEM N/A         79  36  21  SW3     29.85S
#UNION 1S       N/A         79  36  21  E9      29.71F
$$

ORZ050-010110-
WALLOWA COUNTY

CITY            SKY/WX      TMP DP  RH  WIND    PRES   REMARKS
#IMNAHA SCHOOL  N/A         85  34  16  S7      29.80S
#IMNAHA 10S     N/A         80  35  20  SW8     29.85F
#JOSEPH 3W      N/A         69  38  32  CALM    29.80F
#LOSTINE 3SE    N/A         75  34  22  E2      29.88S
#MT HOWARD 8000 N/A         52  N/A N/A SE10    30.15F



$$



USA.gov is the U.S. government's official web portal to all federal, state and local government web resources and services.